Reflectivity
-20 -20 -20 -1 -20 -20 -20 -20 -20 -20 -20 -20 -20 -20 -20 -20 -20 -20 -1 -20 7 4 -20 -20 -20 21 -0 -20 -18 5 15 9 5 11 29 20 20 15 18 18 -17 8 8 4
-11 -20 -20 1 -20 -20 -20 -20 -20 -20 -20 -20 -20 -20 -20 -20 -20 -7 7 1 -2 -20 7 5 -14 -12 -20 -20 -20 4 -20 14 -4 -20 20 23 22 24 12 16 7 17 14 2
-17 -8 -20 -20 -20 -20 -20 -20 -20 -20 -20 -20 -20 -20 -20 -20 -20 -12 5 -4 -20 10 6 10 -1 -7 -20 -20 -15 -20 -20 -12 9 -0 20 16 21 11 20 14 19 14 20 -19
-16 -4 -20 -20 -1 -20 -20 -20 -20 -20 -20 -20 -20 -20 -20 -11 -1 -20 -20 -8 13 15 11 10 12 9 -20 -20 -20 -20 -20 -20 -20 -20 -7 -1 7 4 2 7 19 19 15 14
-3 -20 12 -20 -7 -20 -20 -20 -20 -20 -20 -20 -20 -20 -6 -6 2 6 4 10 16 13 13 16 -0 14 5 -20 -20 -20 -20 2 -20 -20 -20 -13 14 2 10 0 5 15 20 15
11 -20 -20 11 -13 -20 3 -0 4 9 -20 -20 -20 -8 -4 4 -3 -13 8 7 4 7 16 -20 -20 -20 -20 -20 -20 -20 -19 6 6 2 -20 -3 4 6 8 13 18 17 -1 2
-20 17 -20 7 -20 -20 -2 17 14 13 -7 -20 -11 -4 2 6 7 9 -1 13 15 11 -20 -20 -20 -20 -20 -20 -20 -20 -12 5 6 7 -20 -20 1 -14 12 14 16 19 6 8
-12 1 15 -14 12 -6 16 22 22 14 6 -20 -13 1 3 -20 7 7 1 9 -20 -20 -20 -20 -15 -20 -20 12 -16 -20 -20 -2 15 6 10 -8 -0 -1 -8 -3 8 15 11 9
3 -20 13 -18 16 -20 11 -17 -16 17 14 -20 5 6 7 10 9 1 6 -20 -20 -20 -20 9 0 10 6 1 14 -20 -20 -20 -5 7 8 13 -4 -4 -7 -20 2 1 11 9
-16 13 13 -8 19 1 16 17 10 17 14 -1 -1 11 13 7 -7 13 6 -20 -20 -20 2 5 13 11 -20 1 5 -20 -20 -20 2 6 10 -20 -14 -10 -20 2 -2 2 3 1
-20 -2 5 19 19 -19 2 16 22 1 11 -5 -2 -3 5 18 10 16 -19 -4 1 12 13 12 15 2 10 -9 -20 -20 -20 -17 4 -5 7 -4 -13 -20 -20 1 4 0 -1 -2
-12 -20 -19 15 18 18 18 21 -20 17 9 -17 -20 -17 5 8 -10 17 -20 -17 11 16 16 15 14 16 12 -18 8 -20 -9 -20 -18 -19 -4 2 -1 1 1 2 1 -0 -1 -1
13 17 15 -4 -14 -4 31 19 16 16 5 -20 -3 3 1 -2 -3 -20 -2 15 7 14 -20 9 13 13 -20 10 3 -17 -20 -20 -2 -17 2 -2 -2 -7 -7 -17 -3 -5 -20 -20
-18 19 16 17 -6 24 21 12 9 17 -16 1 -0 -20 9 -12 -20 -11 -20 -17 -9 2 1 14 11 9 -18 -10 -20 -20 -16 -20 -18 -20 -20 -7 -1 -13 -5 -20 -20 -6 -6 -10
-5 -20 6 -10 12 -1 20 32 -17 -2 -15 15 13 -20 -20 -17 14 -6 -20 -20 -7 13 12 6 -2 -2 -6 -14 -20 -6 -7 -20 -4 -4 -17 -20 -12 -9 -6 -20 -20 -5 -3 -20
-14 13 -19 17 17 3 24 21 -20 1 -1 15 11 -0 -20 -20 -0 8 -20 -20 -20 -20 -3 -4 -1 -20 1 -4 -19 -2 -2 -3 -20 -6 -20 -20 -20 -20 -20 -20 -20 -20 -12 -20
17 16 -20 -20 -15 11 20 10 1 -4 -17 13 14 13 -20 -12 7 -4 -20 -20 -20 -20 -2 -3 -1 -16 -18 -8 -7 -20 -4 -2 -17 -20 -20 -16 -18 -8 -20 -20 -20 -17 -20 -20
-16 -20 -10 8 0 12 16 35 31 18 -1 -20 17 -14 -20 -20 -20 15 -20 -20 -20 -20 -4 -1 -3 -10 -19 -16 -2 -2 -14 4 -2 -20 -20 -20 -20 -20 -17 -20 -20 -20 -20 -20
-20 -20 9 -20 -20 5 -13 -19 -16 -20 -12 -20 -17 -7 1 -20 -20 -5 10 -14 -15 -20 -18 -8 -20 -1 -17 -3 -13 -17 -4 -6 -18 -20 -20 -20 -15 -11 1 -16 -20 -9 -13 -17
-20 -10 -6 -19 -20 -1 -19 -20 -20 -20 -20 -20 -1 -20 -3 -20 -20 11 2 6 3 -1 -7 -20 -9 -1 -19 -20 -3 -19 -1 1 3 -6 -19 -5 -19 -18 -1 -3 -2 0 -2 -4
-20 -20 -20 -20 -20 -20 -20 -20 -20 -20 -20 -14 0 -17 -4 -20 4 7 -19 5 2 -1 -1 -1 -1 -1 1 -3 -4 -0 -3 -1 1 -4 -1 -16 -4 -1 -5 -4 -3 -7 -4 -6
-20 -20 -20 -20 -20 -20 -20 -6 -15 -2 1 0 -2 -4 -4 -11 -5 11 -6 8 1 -10 -11 -20 -6 3 4 2 1 2 -2 -4 -5 -20 -20 -20 -7 -20 -20 -14 -4 -5 -8 -7
-20 -20 -20 -20 -20 -20 -20 -20 -5 -0 1 4 3 -1 -1 1 5 5 2 -5 -5 -15 -18 -5 2 1 2 4 2 -2 -3 -3 -6 -20 -20 -20 -18 -20 -20 -20 -20 -20 -20 -18
-20 -20 -20 -20 -19 -1 0 1 2 1 2 1 3 6 3 3 1 1 -4 0 -2 -20 -20 -2 2 2 -3 -4 -4 -3 -6 -6 -4 -6 -20 -20 -20 -7 -20 -20 -20 -18 -20 -20
-20 -20 -12 2 2 -9 -1 -2 -2 0 -2 1 1 9 -0 -7 -5 -3 1 -20 -11 -4 0 4 1 2 -4 -4 -6 -5 -4 -3 -0 -4 -4 -16 -5 -4 -14 -20 -20 -20 -20 -20
-20 -20 -16 -20 -20 -20 -20 -19 -8 -20 -4 -10 3 -11 -20 -19 -2 -19 -3 -16 -8 2 3 4 2 4 -1 -6 -7 -3 -2 -1 -2 0 1 -2 -1 -15 -20 -20 -20 -20 -20 -20
-20 -20 -20 -20 -20 -20 -20 -20 -20 -20 0 1 -11 -20 -5 -18 -19 -19 0 -1 2 3 1 -1 4 2 -1 -12 -3 -4 -3 -4 -5 -4 -4 -0 -3 -20 -3 -3 -7 -20 -20 -20
Wind_Speed
15 17 20 21 22 25 10 4 4 7 10 5 2 4 4 6 9 11 8 8 8 11 14 13 16 7 9 15 14 8 3 6 12 16 22 18 18 7 12 9 13 13 6 5
16 16 19 20 19 22 8 6 4 3 10 4 5 6 5 4 10 10 6 8 9 14 13 8 12 9 9 14 12 9 8 3 7 12 5 11 9 14 13 15 9 14 13 7
16 15 17 19 17 19 7 5 5 1 1 2 5 7 4 8 5 9 6 13 14 12 12 8 7 9 7 11 7 9 12 6 8 11 11 8 12 15 13 9 6 6 5 15
15 16 15 17 15 16 7 2 3 3 5 3 7 6 8 10 9 4 12 8 6 10 8 14 12 13 15 11 1 9 6 6 10 13 15 12 7 13 12 8 10 7 9 10
14 15 14 15 14 14 4 6 4 2 11 7 8 3 6 9 9 11 14 13 14 12 10 12 16 14 12 8 7 12 4 4 8 14 11 6 13 15 7 12 11 6 9 10
14 15 15 13 13 6 3 2 2 3 8 8 8 5 6 11 13 7 12 14 17 17 13 10 12 11 13 14 14 9 6 5 7 5 7 7 6 15 10 11 13 9 8 9
16 14 15 11 12 1 4 4 3 3 10 8 9 12 11 12 13 14 13 10 10 6 10 14 14 15 10 7 6 7 5 8 6 7 8 6 7 7 11 15 11 11 10 12
17 13 14 15 11 11 4 2 2 3 7 11 13 7 11 12 9 7 7 6 8 10 10 7 6 6 6 7 3 2 5 8 5 5 6 7 6 7 6 7 8 14 16 14
16 17 17 14 12 13 4 4 4 3 5 2 9 11 11 7 7 8 0 6 7 5 7 4 4 4 5 1 5 1 1 5 5 8 7 5 7 10 5 6 5 12 11 12
19 17 18 15 13 13 5 4 7 3 5 9 4 7 7 5 5 6 6 7 4 4 4 7 5 3 2 4 4 5 6 4 5 8 2 5 12 11 7 5 6 9 9 10
17 19 18 19 13 14 4 3 7 5 4 9 6 4 8 5 6 8 7 6 2 4 4 3 2 4 4 2 4 5 5 5 5 4 2 2 17 3 6 6 7 10 11 12
19 19 19 17 15 13 7 4 6 6 4 6 5 10 11 10 9 5 2 4 3 4 5 2 3 3 2 3 2 4 2 5 4 6 4 6 8 10 8 9 8 10 11 12
20 20 20 16 16 8 7 2 5 3 4 8 6 3 3 2 3 4 3 1 4 1 1 4 3 3 4 4 4 3 4 3 1 5 5 6 7 7 9 9 10 10 11 11
21 17 18 18 16 10 9 3 4 4 2 4 3 4 3 3 4 3 3 4 1 2 2 2 3 3 5 4 3 4 5 5 2 3 4 4 2 8 8 10 10 10 10 10
20 20 19 15 10 5 5 4 5 5 4 3 1 4 3 3 1 1 2 0 2 1 1 1 3 3 1 3 2 5 5 4 3 5 5 4 5 7 7 8 9 10 10 11
19 19 16 11 2 10 2 1 4 5 4 3 2 4 4 6 3 5 6 5 4 3 3 3 3 2 3 2 3 4 5 3 2 4 6 4 5 2 4 5 7 7 7 8
19 17 16 14 4 5 1 4 2 7 3 3 2 4 3 4 1 3 3 5 3 3 3 3 2 3 3 2 3 5 6 2 4 4 6 3 5 3 5 4 5 6 4 4
15 14 7 12 13 10 5 6 8 3 1 2 2 3 3 6 2 0 1 2 3 4 3 2 2 2 3 4 4 4 6 2 2 6 4 3 4 5 4 3 4 5 3 5
15 8 0 2 4 3 3 6 11 5 5 3 3 5 4 6 2 1 2 1 3 2 3 3 1 3 5 4 5 6 6 5 6 7 5 4 4 5 5 7 7 7 7 8
7 2 1 3 4 7 5 2 2 5 4 4 4 4 3 5 4 1 1 1 3 2 3 3 3 4 3 3 3 3 5 5 5 6 6 8 8 8 8 7 6 6 7 8
3 3 3 3 5 1 3 3 4 4 4 4 4 4 5 3 3 3 2 2 2 2 4 0 2 3 4 4 4 2 4 6 5 5 6 6 7 7 8 8 8 8 9 9
4 4 2 3 5 4 5 5 3 5 4 4 6 7 4 3 3 3 3 2 1 4 2 2 3 3 3 5 4 4 5 6 6 5 6 7 7 7 7 7 7 8 9 9
2 4 5 5 6 10 7 8 3 4 6 5 7 8 4 3 2 1 2 3 4 2 3 4 4 5 6 6 5 6 5 6 6 7 6 7 7 6 6 7 7 8 8 7
6 6 8 6 6 6 5 6 6 6 7 8 8 4 3 3 3 3 3 3 2 3 3 4 4 6 6 7 7 7 9 8 8 8 7 8 7 6 6 6 7 8 8 9
6 6 6 6 3 4 5 6 5 5 7 6 5 1 3 3 3 4 3 3 5 5 4 3 5 6 7 7 8 8 8 7 6 6 6 6 6 5 6 6 6 7 8 8
5 8 4 6 3 7 7 7 6 6 7 5 2 3 2 5 3 4 6 3 5 3 4 5 5 5 6 7 9 7 7 7 7 7 6 6 5 6 6 6 4 6 7 7
5 4 6 5 3 6 7 7 7 8 5 3 2 5 5 3 3 4 4 4 4 5 5 5 5 6 6 7 7 7 7 7 7 7 7 6 5 5 5 6 6 7 7 4
Wind_Direction
4 4 355 353 357 354 347 302 292 15 329 17 66 20 322 299 304 321 313 309 318 329 323 322 305 335 357 358 341 345 52 300 287 289 297 302 234 297 259 227 191 227 258 109
357 360 358 350 1 358 325 322 298 77 311 1 360 10 295 283 313 323 323 307 327 306 302 310 333 336 347 2 338 14 334 341 311 295 150 16 29 15 345 328 295 216 210 116
348 355 358 347 2 351 324 299 301 125 277 121 330 348 320 312 319 319 315 301 295 303 306 282 297 318 343 342 336 2 343 290 277 281 332 325 337 352 357 3 316 316 255 121
346 346 349 348 1 349 308 11 31 14 308 330 322 293 297 304 323 315 310 305 321 332 296 316 296 335 329 325 118 342 352 288 314 305 303 297 42 4 19 34 354 6 64 75
338 338 346 347 356 338 305 326 340 335 288 288 283 278 286 310 309 315 303 290 289 307 288 278 292 309 316 307 321 335 342 288 314 291 281 301 74 24 45 26 354 57 105 74
333 333 339 336 345 348 318 10 287 280 291 277 280 315 321 303 307 302 306 307 296 289 312 319 303 297 284 279 291 301 301 317 306 294 332 296 88 16 86 68 34 356 22 12
323 324 321 331 325 315 285 314 299 273 286 299 291 302 298 296 309 309 311 324 302 339 307 294 267 254 273 264 267 231 300 310 294 292 278 226 90 42 70 85 43 20 28 14
316 326 299 318 319 313 255 284 277 265 278 303 294 287 309 295 292 297 304 313 321 319 293 280 288 200 208 201 149 201 254 295 314 299 357 117 126 40 354 338 55 22 12 5
316 315 312 309 313 301 268 229 198 263 285 299 349 309 293 292 314 300 155 322 326 298 284 260 257 287 355 325 173 170 241 273 278 325 297 10 35 358 333 305 101 16 6 4
313 316 311 311 301 290 286 266 193 234 267 283 308 294 325 302 270 272 286 346 300 271 296 280 290 309 347 291 327 345 320 321 308 319 37 108 355 325 317 239 40 359 6 10
311 317 322 311 305 281 252 268 202 206 248 283 253 258 268 266 257 274 6 291 194 280 286 304 30 286 41 282 43 358 335 318 30 276 261 168 353 39 9 355 351 4 0 6
311 319 315 312 311 271 262 232 196 210 237 288 298 273 267 282 283 305 333 323 302 7 295 18 301 292 282 13 299 52 202 13 10 0 51 70 40 53 36 10 357 6 357 354
318 312 310 321 316 281 225 218 173 193 265 264 249 282 135 151 250 327 297 77 22 76 343 324 315 301 323 307 68 141 100 3 4 202 129 86 50 40 24 11 358 355 356 351
330 325 312 318 312 295 189 182 177 222 307 281 102 116 92 17 357 308 296 314 293 331 341 328 349 349 1 49 47 26 12 305 7 98 72 158 114 37 6 354 355 356 348 353
333 327 333 331 335 321 210 172 187 197 248 302 359 128 73 56 301 99 62 144 290 348 170 29 61 64 28 63 115 62 355 16 329 42 37 331 56 25 3 349 348 347 337 342
325 334 334 328 11 107 78 195 185 199 208 257 246 90 47 19 68 86 79 73 59 61 52 73 79 358 314 76 76 57 19 6 6 14 340 313 308 293 16 329 330 319 344 328
338 335 335 321 303 172 324 357 61 149 157 248 247 135 62 28 299 151 84 59 69 59 82 62 60 46 17 37 68 23 5 24 58 5 324 223 50 342 320 289 295 306 302 313
344 344 21 59 78 79 33 2 95 113 256 359 323 83 138 7 344 181 100 101 110 41 94 105 70 87 57 76 42 18 9 331 38 12 347 299 294 300 301 306 309 326 325 317
341 339 97 93 41 56 94 79 70 55 22 62 36 358 46 345 11 312 167 171 95 150 94 81 240 65 49 23 355 6 357 345 327 327 295 297 312 315 333 338 343 337 340 341
335 306 31 71 37 321 215 182 37 37 43 27 52 334 357 326 345 284 322 29 123 110 67 113 69 83 110 16 332 318 335 335 305 327 342 342 338 334 339 335 325 326 331 329
25 34 54 36 331 270 27 54 32 13 67 24 9 29 333 25 313 347 21 22 138 137 96 74 103 93 44 355 357 350 342 335 336 322 311 321 317 327 331 330 333 336 334 334
49 71 78 37 21 17 57 28 34 30 40 28 351 339 324 303 292 288 39 5 29 84 93 99 91 73 21 1 2 9 358 348 344 336 331 334 326 339 328 327 335 339 334 330
61 50 52 11 1 41 30 7 26 354 6 8 335 328 331 282 10 296 329 58 59 127 55 64 56 35 12 355 3 353 351 345 340 338 335 332 329 331 337 329 341 337 335 342
53 38 39 35 29 35 18 340 332 328 322 330 318 301 343 351 334 343 55 50 20 71 68 68 53 14 2 352 348 344 340 339 338 330 330 329 327 331 334 331 334 336 340 336
55 25 43 49 70 28 352 336 321 347 327 318 307 268 339 4 29 13 30 62 63 33 43 40 12 356 357 352 350 341 338 337 328 330 322 318 313 317 325 330 325 333 336 338
62 43 22 359 0 9 1 351 331 357 329 290 300 352 35 39 17 43 24 44 46 34 5 354 345 3 355 351 338 340 332 334 333 334 328 317 320 334 325 314 316 336 334 328
52 51 27 27 15 350 341 336 336 328 294 21 5 40 27 10 46 48 19 29 2 350 345 346 351 355 353 341 331 336 339 333 334 331 335 334 342 320 302 330 335 339 333 321